[[{"header":{"parameterUnit":"m.s-1","parameterCategory":1,"la1":30.2991,"la2":30.254,"lo1":-89.0895,"lo2":-89.0444,"dy":0.0017,"dx":0.0017,"nx":28,"ny":28,"refTime":"2024-12-08T09:00:00:Z","depth":0,"parameterNumber":2,"parameterNumberName":"U-component_of_WINDS"},"data":[0,0,0,0,0,0,0,0,0,0,0,0,0,0,0,0,0,0,0,0,0,0,0,0,0,0,0,0,0,0,0,0,0,0,0,0,0,0,0,0,0,0,0,0,0,0,0,0,0,0,0,0,0,0,0,0,0,0,1.4408,1.4409,0,1.446,1.446,1.4461,1.4439,1.4437,1.4436,1.4435,1.4489,1.4492,1.4494,0,0,0,0,0,0,0,0,0,0,0,0,0,1.4293,1.4295,1.4408,1.4409,1.441,1.446,1.446,1.4461,1.4439,1.4437,1.4436,1.4434,1.4488,1.4491,1.4495,0,0,0,0,0,0,0,0,0,0,0,0,0,1.4344,1.4296,1.4408,1.4405,1.4405,1.4459,1.446,1.4461,1.4439,1.4437,1.4435,1.4434,1.4487,1.4491,1.4495,1.4557,0,0,1.4507,1.4509,0,0,0,0,0,0,0,0,1.4341,1.4348,1.4404,1.4405,1.4405,1.4441,1.444,1.4493,1.444,1.4426,1.4435,1.4433,1.4475,1.448,1.4493,1.4559,1.4562,1.4507,1.451,1.4511,1.4513,0,0,0,0,0,0,0,1.4337,1.4346,1.4429,1.4405,1.4406,1.4401,1.4406,1.445,1.446,1.4427,1.4426,1.4432,1.4475,1.449,1.4495,1.4563,1.4507,1.4511,1.4513,1.4515,1.4683,1.4685,0,0,0,0,0,0,1.4334,1.4343,1.4427,1.443,1.4368,1.4405,1.441,1.4431,1.446,1.4462,1.4433,1.4431,1.4484,1.449,1.4496,1.4572,1.4511,1.4515,1.4517,1.4681,1.4684,1.4686,0,0,0,0,0,0,1.4331,1.4341,1.4425,1.4386,1.4396,1.4409,1.4432,1.4433,1.4448,1.4465,1.4467,1.4447,1.4483,1.4491,1.4542,1.4573,1.4517,1.452,1.4679,1.4682,1.4685,1.4723,0,0,0,0,0,0,1.4328,1.4341,1.4364,1.4387,1.4399,1.447,1.4434,1.4436,1.4455,1.4452,1.4478,1.448,1.4482,1.4536,1.4546,1.4578,1.4523,1.4676,1.468,1.4684,1.4719,1.4727,1.4734,0,0,0,0,0,1.4324,1.4372,1.4365,1.4375,1.4428,1.4471,1.4478,1.4478,1.4457,1.4481,1.4492,1.4479,1.4568,1.4542,1.4553,1.4586,1.4674,1.4679,1.4684,1.4715,1.4725,1.4733,0,0,0,0,0,0,1.4353,1.4375,1.4367,1.4425,1.4446,1.4467,1.4497,1.4489,1.4517,1.4513,1.4513,1.4519,1.4572,1.4584,1.4554,1.4648,1.4618,1.4625,1.4638,1.4648,1.4655,1.4652,1.4527,0,0,0,0,0,1.4366,1.4399,1.4417,1.4466,1.4477,1.4485,1.4504,1.4503,1.4525,1.4535,1.4549,1.4572,1.4605,1.4627,1.4658,1.472,1.4726,1.4748,1.4756,1.4762,1.4768,1.4803,1.4814,1.4702,1.4702,1.4702,0,0,1.4393,1.4409,1.443,1.4472,1.4488,1.4523,1.4493,1.4531,1.4558,1.454,1.459,1.4601,1.4627,1.4684,1.471,1.4696,1.48,1.4768,1.4772,1.4776,1.4809,1.482,1.4829,1.4705,1.4705,1.4704,0,0,1.4461,1.4476,1.4519,1.4536,1.4562,1.4567,1.4578,1.46,1.4607,1.4657,1.4645,1.4677,1.4733,1.4752,1.477,1.4845,1.4836,1.4856,1.4895,1.4929,1.4938,1.4946,1.4974,1.4984,1.4862,1.4862,1.4862,0,1.4492,1.4544,1.4542,1.4582,1.4601,1.4587,1.4631,1.4648,1.4682,1.4696,1.4679,1.4751,1.4767,1.4829,1.4848,1.4861,1.4874,1.4853,1.4937,1.4944,1.4952,1.4979,1.4989,1.4864,1.4864,1.4864,1.4864,0,1.4581,1.4617,1.4649,1.4683,1.4705,1.4747,1.4753,1.4776,1.4772,1.478,1.4831,1.485,1.4885,1.49,1.4897,1.4962,1.4952,1.4936,1.4906,1.4965,1.499,1.5001,1.4868,1.4867,1.4866,1.4866,0,0,1.4669,1.4702,1.4714,1.4729,1.4756,1.4785,1.4826,1.486,1.4881,1.4905,1.4941,1.4989,1.4975,1.4994,1.4993,1.5023,1.5083,1.5003,1.5004,1.5018,1.5158,1.5171,1.5183,1.5076,1.5078,1.508,1.5156,0,1.474,1.4812,1.4812,1.4879,1.4913,1.4901,1.4937,1.4958,1.4966,1.4997,1.5006,1.5041,1.5018,1.503,1.5059,1.507,1.5112,1.5064,1.5111,1.5112,1.5106,1.5196,1.521,1.5281,1.5166,1.5168,1.5169,0,1.4832,1.486,1.493,1.4954,1.4968,1.5,1.5033,1.5062,1.5086,1.509,1.5112,1.5106,1.5149,1.5117,1.5177,1.5145,1.5164,1.5173,1.5175,1.5181,1.5145,1.5205,1.5304,1.5315,1.5184,1.5183,1.5182,0,1.4891,1.4946,1.4995,1.5009,1.5037,1.506,1.5073,1.5095,1.5116,1.5144,1.5158,1.5191,1.5209,1.5235,1.5239,1.5215,1.53,1.5268,1.5306,1.5306,1.5325,1.5324,1.5429,1.5335,1.5335,1.5335,1.5334,0,1.4971,1.5015,1.5022,1.5053,1.5102,1.5102,1.5151,1.5162,1.5182,1.5215,1.5205,1.5237,1.5239,1.5272,1.5275,1.5325,1.5333,1.5339,1.5339,1.534,1.534,1.5354,1.5349,1.5337,1.5337,1.5336,1.5336,0,1.5046,1.5052,1.5105,1.5128,1.5134,1.517,1.5189,1.5219,1.5226,1.5268,1.5278,1.529,1.5328,1.5334,1.5378,1.5381,1.5441,1.5436,1.5433,1.5433,1.5471,1.5468,1.559,1.5606,1.55,1.5501,1.5502,0,1.5097,1.513,1.5156,1.5178,1.5192,1.5226,1.5248,1.5249,1.5272,1.5303,1.5329,1.5366,1.5396,1.5457,1.547,1.5504,1.5501,1.5541,1.5506,1.5506,1.5503,1.5502,1.5506,1.5548,1.555,1.555,1.5551,0,1.5187,1.5189,1.522,1.5253,1.5279,1.5305,1.5329,1.5347,1.5352,1.5379,1.5417,1.544,1.5486,1.5523,1.5557,1.5571,1.5563,1.5562,1.5573,1.5575,1.5573,1.5576,1.5453,1.556,1.5559,1.5558,1.5558,1.5557,1.5253,1.5282,1.5306,1.5341,1.536,1.5383,1.5412,1.5423,1.5456,1.5493,1.5492,1.5535,1.5559,1.5604,1.562,1.5654,1.5641,1.5656,1.5661,1.5665,1.5669,1.5566,1.566,1.566,1.566,1.5659,1.5659,0,1.5344,1.5359,1.5391,1.5426,1.5454,1.5443,1.5469,1.5494,1.5532,1.5555,1.5584,1.5629,1.5666,1.5681,1.5717,1.5742,1.5739,1.5751,1.575,1.5754,1.5678,1.5666,1.5753,1.5753,1.5753,1.5753,1.5753,1.5753,1.5395,1.5445,1.545,1.551,1.5524,1.5566,1.5582,1.5604,1.5622,1.5673,1.5703,1.5713,1.5734,1.5771,1.5804,1.5808,1.5822,1.5837,1.5839,1.5768,1.5759,1.575,1.5738,1.584,1.584,1.5912,1.5913,1.5914]},{"header":{"parameterUnit":"m.s-1","parameterCategory":1,"la1":30.2991,"la2":30.254,"lo1":-89.0895,"lo2":-89.0444,"dy":0.0017,"dx":0.0017,"nx":28,"ny":28,"refTime":"2024-12-08T09:00:00:Z","depth":0,"parameterNumber":3,"parameterNumberName":"V-component_of_WINDS"},"data":[0,0,0,0,0,0,0,0,0,0,0,0,0,0,0,0,0,0,0,0,0,0,0,0,0,0,0,0,0,0,0,0,0,0,0,0,0,0,0,0,0,0,0,0,0,0,0,0,0,0,0,0,0,0,0,0,0,0,4.1187,4.1188,0,4.128,4.1281,4.1282,4.1265,4.1264,4.1262,4.126,4.1353,4.1357,4.1361,0,0,0,0,0,0,0,0,0,0,0,0,0,4.0994,4.0998,4.1187,4.1188,4.1189,4.128,4.1281,4.1282,4.1266,4.1264,4.1262,4.126,4.1352,4.1357,4.1361,0,0,0,0,0,0,0,0,0,0,0,0,0,4.1082,4.0999,4.1187,4.1192,4.1193,4.128,4.1281,4.1283,4.1266,4.1264,4.1261,4.1259,4.135,4.1356,4.1362,4.1448,0,0,4.138,4.1383,0,0,0,0,0,0,0,0,4.1077,4.1089,4.119,4.1192,4.1194,4.1259,4.1247,4.1338,4.1267,4.1238,4.126,4.1258,4.1324,4.1332,4.1354,4.1452,4.1456,4.1381,4.1384,4.1387,4.1389,0,0,0,0,0,0,0,4.1071,4.1085,4.1224,4.1192,4.1194,4.1189,4.1199,4.1264,4.1293,4.1241,4.124,4.1251,4.1324,4.1349,4.1356,4.1458,4.1381,4.1386,4.139,4.1392,4.1633,4.1636,0,0,0,0,0,0,4.1063,4.108,4.1221,4.1227,4.1128,4.1195,4.1206,4.124,4.1293,4.1298,4.1253,4.125,4.134,4.1349,4.1359,4.1466,4.1387,4.1393,4.1396,4.1631,4.1634,4.1637,0,0,0,0,0,0,4.1059,4.1076,4.1217,4.1153,4.1171,4.1201,4.124,4.1243,4.1268,4.1302,4.1307,4.1273,4.1338,4.1351,4.1427,4.1469,4.1395,4.1401,4.1627,4.1632,4.1636,4.1678,0,0,0,0,0,0,4.1054,4.1075,4.1108,4.1154,4.1174,4.1284,4.1242,4.1247,4.1279,4.1275,4.1322,4.1327,4.1337,4.1418,4.1433,4.1476,4.1405,4.1624,4.1629,4.1634,4.1673,4.1683,4.1692,0,0,0,0,0,4.1047,4.1115,4.111,4.1127,4.1216,4.1286,4.1297,4.1308,4.1282,4.1316,4.1338,4.1326,4.1461,4.1426,4.1442,4.1488,4.1621,4.1628,4.1634,4.1669,4.1681,4.1692,0,0,0,0,0,0,4.1072,4.1121,4.1116,4.1201,4.124,4.1283,4.1326,4.132,4.1366,4.1361,4.1371,4.1382,4.146,4.1481,4.144,4.1575,4.1538,4.1548,4.1559,4.1571,4.158,4.1574,4.141,0,0,0,0,0,4.1088,4.1141,4.118,4.1252,4.1272,4.1296,4.1326,4.1331,4.1371,4.1387,4.1414,4.1453,4.1505,4.1538,4.1587,4.1675,4.1686,4.1715,4.1724,4.1732,4.1741,4.1791,4.1805,4.1658,4.1658,4.1658,0,0,4.112,4.1154,4.1186,4.1258,4.1288,4.1343,4.1309,4.1368,4.1409,4.1395,4.147,4.1491,4.1535,4.1618,4.1656,4.1639,4.1784,4.174,4.1746,4.1751,4.1799,4.1813,4.1826,4.1662,4.1661,4.1661,0,0,4.1209,4.1238,4.1303,4.1334,4.1381,4.1397,4.1412,4.1457,4.1472,4.1546,4.1538,4.1586,4.1674,4.1707,4.1734,4.1836,4.1828,4.1852,4.1902,4.1951,4.1962,4.1973,4.2011,4.2025,4.186,4.186,4.186,0,4.1243,4.1326,4.1336,4.1397,4.1429,4.142,4.1486,4.1515,4.1576,4.1598,4.1577,4.1689,4.1718,4.1809,4.1835,4.1856,4.1875,4.1847,4.196,4.197,4.198,4.2017,4.2032,4.1863,4.1863,4.1862,4.1862,0,4.1368,4.1425,4.1471,4.1532,4.1569,4.1631,4.1651,4.1687,4.1688,4.1706,4.1783,4.1817,4.1874,4.1896,4.1897,4.1988,4.1976,4.1957,4.1921,4.1997,4.2032,4.2046,4.1867,4.1866,4.1865,4.1865,0,0,4.1475,4.1541,4.1558,4.1586,4.1638,4.1683,4.1745,4.1802,4.1834,4.1875,4.1929,4.2004,4.1988,4.202,4.2024,4.2067,4.2149,4.2043,4.2044,4.2064,4.2254,4.227,4.2286,4.2142,4.2145,4.2147,4.2251,0,4.157,4.1682,4.1693,4.1793,4.1847,4.184,4.1894,4.1932,4.195,4.1999,4.2018,4.2073,4.2046,4.2065,4.2107,4.213,4.2187,4.2122,4.2193,4.2196,4.2185,4.2304,4.232,4.2417,4.2265,4.2267,4.2268,0,4.1696,4.1744,4.185,4.1896,4.1919,4.1968,4.2023,4.2068,4.2111,4.2121,4.2158,4.2157,4.2222,4.2181,4.2271,4.2226,4.2255,4.2271,4.2275,4.2284,4.2239,4.2318,4.2448,4.2463,4.229,4.2288,4.2286,0,4.1767,4.1857,4.1933,4.1957,4.2012,4.2047,4.2072,4.2112,4.2146,4.2193,4.2215,4.2268,4.2298,4.2339,4.2353,4.2321,4.2443,4.2402,4.2454,4.2454,4.2482,4.2481,4.2621,4.2497,4.2496,4.2496,4.2496,0,4.1874,4.194,4.1967,4.2013,4.2087,4.2099,4.2171,4.2194,4.223,4.2281,4.2276,4.2324,4.2339,4.2389,4.24,4.2474,4.2486,4.2497,4.25,4.2499,4.2499,4.2521,4.2515,4.25,4.2499,4.2498,4.2498,0,4.1967,4.1987,4.207,4.2116,4.2129,4.2181,4.2221,4.2266,4.2283,4.2348,4.2364,4.2392,4.2451,4.2469,4.2539,4.2546,4.2634,4.2629,4.2621,4.2622,4.2674,4.267,4.2835,4.2858,4.2716,4.2718,4.2719,0,4.2035,4.2086,4.2138,4.2172,4.2199,4.2254,4.229,4.2303,4.234,4.2393,4.2433,4.2491,4.254,4.2635,4.2661,4.2715,4.2713,4.2767,4.2721,4.272,4.2717,4.2715,4.2722,4.2777,4.2778,4.2779,4.278,0,4.2154,4.2162,4.2214,4.227,4.2313,4.2358,4.24,4.2428,4.2448,4.2489,4.2551,4.2589,4.2662,4.2721,4.2777,4.2801,4.2795,4.2794,4.281,4.2811,4.2806,4.2812,4.2647,4.2791,4.279,4.2789,4.2789,4.2788,4.2239,4.2285,4.2329,4.2388,4.2421,4.2462,4.2508,4.2532,4.2583,4.2646,4.2649,4.2717,4.2759,4.2833,4.2861,4.2913,4.2897,4.2919,4.2925,4.2931,4.2937,4.2795,4.2923,4.2923,4.2922,4.2922,4.2922,0,4.2361,4.2389,4.2443,4.2504,4.255,4.254,4.2587,4.2626,4.2686,4.2726,4.2775,4.2846,4.2904,4.2935,4.2992,4.3029,4.3027,4.3043,4.3042,4.3049,4.2946,4.2929,4.3044,4.3044,4.3044,4.3044,4.3044,4.3044,4.243,4.2508,4.2521,4.2616,4.2644,4.2711,4.2739,4.2776,4.2809,4.289,4.2938,4.2958,4.2995,4.3056,4.3108,4.3116,4.3138,4.3157,4.3163,4.3068,4.3055,4.3043,4.3027,4.3161,4.3161,4.3261,4.3262,4.3263]}]]